KA4JMC Weather Reports


Display with metric or nautical units.
time (UTC)temp
F
wind
direction
speed
MPH
gust
MPH
rain 1hr
in
rain 24hr
in
rain mn
in
humidity
%
barometer
mb
20260902072522 76 202 0.0 0.0 0.00 0.00 0.00 1014.2
20260902072023 76 187 0.0 0.0 0.00 0.00 0.00 1014.2
20260902071522 76 182 2.0 0.0 0.00 0.00 0.00 1014.2
20260902071028 76 207 0.0 0.0 0.00 0.00 0.00 1014.2
20260902070524 76 173 0.0 3.0 0.00 0.00 0.00 1014.2
20260902070048 76 186 0.0 0.0 0.00 0.00 0.00 1014.2
20260902065544 76 169 0.0 0.0 0.00 0.00 0.00 1014.2
20260902065023 76 189 0.0 0.0 0.00 0.00 0.00 1014.2
20260902064522 76 177 0.0 0.0 0.00 0.00 0.00 1014.2
20260902064028 76 177 0.0 0.0 0.00 0.00 0.00 1014.2
20260902063525 76 176 0.0 0.0 0.00 0.00 0.00 1014.2
20260902063022 76 213 0.0 0.0 0.00 0.00 0.00 1014.2
20260902062525 76 186 0.0 0.0 0.00 0.00 0.00 1014.2
20260902062031 76 182 0.0 0.0 0.00 0.00 0.00 1014.2
20260902061522 76 237 0.0 0.0 0.00 0.00 0.00 1014.2
20260902061024 77 210 0.0 0.0 0.00 0.00 0.00 1014.2
20260902060523 77 183 0.0 0.0 0.00 0.00 0.00 1014.2
20260902060044 77 198 0.0 0.0 0.00 0.00 0.00 1014.2
20260902055523 77 208 0.0 0.0 0.00 0.00 0.00 1014.2
20260902055022 77 180 0.0 0.0 0.00 0.00 0.00 1014.2
20260902054522 77 163 0.0 0.0 0.00 0.00 0.00 1014.2
20260902054023 77 169 0.0 0.0 0.00 0.00 0.00 1014.2
20260902053530 77 206 0.0 0.0 0.00 0.00 0.00 1014.2
20260902053035 77 168 0.0 0.0 0.00 0.00 0.00 1014.2
20260902052522 77 198 0.0 0.0 0.00 0.00 0.00 1014.2
20260902052022 77 190 0.0 0.0 0.00 0.00 0.00 1014.2
20260902051523 77 193 0.0 0.0 0.00 0.00 0.00 1014.2
20260902051044 77 197 0.0 0.0 0.00 0.00 0.00 1014.2
20260902050523 78 185 0.0 0.0 0.00 0.00 0.00 1014.2
20260902050050 78 192 0.0 0.0 0.00 0.00 0.00 1014.2
20260902045523 78 195 0.0 0.0 0.00 0.00 0.00 1014.2
20260902045043 78 199 0.0 0.0 0.00 0.00 0.00 1014.2
20260902044543 78 194 0.0 0.0 0.00 0.00 0.00 1014.2
20260902044023 78 210 0.0 0.0 0.00 0.00 0.00 1014.2
20260902043523 78 176 0.0 3.0 0.00 0.00 0.00 1014.2
20260902043032 79 222 0.0 0.0 0.00 0.00 0.00 1014.2
20260902042522 79 200 0.0 4.0 0.00 0.00 0.00 1014.2
20260902042024 79 207 2.0 0.0 0.00 0.00 0.00 1014.2
20260902041523 79 180 0.0 0.0 0.00 0.00 0.00 1014.2
20260902041023 79 208 3.0 4.0 0.00 0.00 0.00 1014.2
20260902040523 79 200 0.0 3.0 0.00 0.00 0.00 1014.2
20260902040031 79 178 0.0 0.0 0.00 0.00 0.00 1014.2
20260902035522 79 254 0.0 3.0 0.00 0.00 0.00 1014.2
20260902035023 79 220 0.0 0.0 0.00 0.00 0.00 1014.2
20260902034522 79 193 0.0 0.0 0.00 0.00 0.00 1014.2
20260902034022 79 213 2.0 0.0 0.00 0.00 0.00 1014.2
20260902033522 79 185 0.0 0.0 0.00 0.00 0.00 1014.2
20260902033039 79 168 0.0 0.0 0.00 0.00 0.00 1014.2
20260902032530 79 187 0.0 4.0 0.00 0.00 0.00 1014.2
20260902032023 79 189 0.0 4.0 0.00 0.00 0.00 1014.2
20260902031528 79 166 0.0 3.0 0.00 0.00 0.00 1014.2
20260902031045 79 218 0.0 0.0 0.00 0.00 0.00 1014.2
20260902030527 79 183 0.0 0.0 0.00 0.00 0.00 1015.2
20260902030026 79 168 0.0 0.0 0.00 0.00 0.00 1015.2
20260902025525 79 177 0.0 0.0 0.00 0.00 0.00 1015.2
20260902025023 79 174 0.0 0.0 0.00 0.00 0.00 1014.2
20260902024523 79 189 0.0 0.0 0.00 0.00 0.00 1014.2
20260902024028 79 177 0.0 0.0 0.00 0.00 0.00 1014.2
20260902023522 79 258 0.0 0.0 0.00 0.00 0.00 1014.2
20260902023036 79 186 0.0 0.0 0.00 0.00 0.00 1014.2
20260902022534 79 186 0.0 0.0 0.00 0.00 0.00 1014.2
20260902022025 79 186 0.0 0.0 0.00 0.00 0.00 1014.2
20260902021527 80 186 0.0 0.0 0.00 0.00 0.00 1014.2
20260902021022 80 186 0.0 0.0 0.00 0.00 0.00 1014.2
20260902020522 80 186 0.0 0.0 0.00 0.00 0.00 1014.2
20260902020035 80 186 0.0 0.0 0.00 0.00 0.00 1014.2
20260902015528 80 186 0.0 0.0 0.00 0.00 0.00 1014.2
20260902015023 80 186 0.0 0.0 0.00 0.00 0.00 1014.2
20260902014522 81 186 0.0 0.0 0.00 0.00 0.00 1014.2
20260902014022 81 225 0.0 0.0 0.00 0.00 0.00 1014.2
20260902013523 81 176 0.0 0.0 0.00 0.00 0.00 1014.2
20260902013024 81 176 0.0 0.0 0.00 0.00 0.00 1014.2
20260902012524 81 176 0.0 0.0 0.00 0.00 0.00 1014.2
20260902012022 81 160 0.0 0.0 0.00 0.00 0.00 1014.2
20260902011522 81 191 0.0 0.0 0.00 0.00 0.00 1014.2
20260902011024 81 191 0.0 0.0 0.00 0.00 0.00 1014.2
20260902010544 82 191 0.0 0.0 0.00 0.00 0.00 1014.2
20260902010023 82 191 0.0 0.0 0.00 0.00 0.00 1014.2
20260902005544 82 191 0.0 0.0 0.00 0.00 0.00 1014.2
20260902005023 82 191 0.0 0.0 0.00 0.00 0.00 1013.2
20260902004523 82 191 0.0 0.0 0.00 0.00 0.00 1013.2
20260902004023 83 191 0.0 0.0 0.00 0.00 0.00 1013.2
20260902003522 83 191 0.0 0.0 0.00 0.00 0.00 1013.2
20260902003023 83 191 0.0 0.0 0.00 0.00 0.00 1013.2
20260902002522 84 243 0.0 0.0 0.00 0.00 0.00 1013.2
20260902002022 84 243 0.0 0.0 0.00 0.00 0.00 1013.2
20260902001544 84 243 0.0 0.0 0.00 0.00 0.00 1013.2
20260902001024 85 247 0.0 0.0 0.00 0.00 0.00 1013.2
20260902000531 85 181 0.0 0.0 0.00 0.00 0.00 1013.2
20260902000032 85 181 0.0 0.0 0.00 0.00 0.00 1013.2
20260901235523 85 181 0.0 0.0 0.00 0.00 0.00 1013.2
20260901235044 86 201 0.0 0.0 0.00 0.00 0.00 1013.2
20260901234523 86 201 0.0 0.0 0.00 0.00 0.00 1013.2
20260901234024 86 176 0.0 3.0 0.00 0.00 0.00 1013.2
20260901233526 87 178 0.0 0.0 0.00 0.00 0.00 1014.2
20260901233054 87 176 0.0 0.0 0.00 0.00 0.00 1014.2
20260901232525 87 167 0.0 0.0 0.00 0.00 0.00 1014.2
20260901232024 87 171 0.0 0.0 0.00 0.00 0.00 1014.2
20260901231523 87 175 2.0 0.0 0.00 0.00 0.00 1014.2
20260901231022 87 182 0.0 0.0 0.00 0.00 0.00 1014.2
20260901230522 87 177 0.0 3.0 0.00 0.00 0.00 1014.2
20260901230022 87 201 0.0 0.0 0.00 0.00 0.00 1014.2
20260901225522 87 218 2.0 4.0 0.00 0.00 0.00 1014.2
20260901225023 88 227 0.0 4.0 0.00 0.00 0.00 1014.2
20260901224531 88 162 0.0 0.0 0.00 0.00 0.00 1014.2
20260901224022 88 167 0.0 3.0 0.00 0.00 0.00 1014.2
20260901223527 88 169 3.0 0.0 0.00 0.00 0.00 1014.2
20260901223023 88 198 0.0 0.0 0.00 0.00 0.00 1014.2
20260901222527 88 172 0.0 3.0 0.00 0.00 0.00 1014.2
20260901222029 88 190 0.0 0.0 0.00 0.00 0.00 1014.2
20260901221522 88 235 0.0 0.0 0.00 0.00 0.00 1014.2
20260901221022 89 185 3.0 3.0 0.00 0.00 0.00 1014.2
20260901220523 89 223 0.0 0.0 0.00 0.00 0.00 1014.2
20260901220028 89 208 0.0 3.0 0.00 0.00 0.00 1014.2
20260901215523 89 223 0.0 3.0 0.00 0.00 0.00 1014.2
20260901215045 89 185 0.0 2.0 0.00 0.00 0.00 1014.2
20260901214522 89 204 0.0 3.0 0.00 0.00 0.00 1014.2
20260901214043 89 222 0.0 3.0 0.00 0.00 0.00 1014.2
20260901213523 89 237 0.0 4.0 0.00 0.00 0.00 1014.2
20260901213023 89 205 0.0 0.0 0.00 0.00 0.00 1014.2
20260901212523 90 184 0.0 3.0 0.00 0.00 0.00 1014.2
20260901212023 90 186 0.0 0.0 0.00 0.00 0.00 1014.2
20260901211523 90 195 0.0 4.0 0.00 0.00 0.00 1014.2
20260901211030 90 154 0.0 0.0 0.00 0.00 0.00 1014.2
20260901210522 90 208 4.0 3.0 0.00 0.00 0.00 1013.2
20260901210023 90 180 2.0 4.0 0.00 0.00 0.00 1013.2
20260901205544 90 267 0.0 0.0 0.00 0.00 0.00 1013.2
20260901205023 90 290 0.0 4.0 0.00 0.00 0.00 1014.2
20260901204522 90 206 0.0 0.0 0.00 0.00 0.00 1014.2
20260901204022 90 230 0.0 3.0 0.00 0.00 0.00 1014.2
20260901203523 90 255 0.0 4.0 0.00 0.00 0.00 1014.2
20260901203025 90 198 0.0 4.0 0.00 0.00 0.00 1014.2
20260901202525 90 240 2.0 0.0 0.00 0.00 0.00 1014.2
20260901202023 90 244 4.0 2.0 0.00 0.00 0.00 1014.2
20260901201529 90 244 3.0 3.0 0.00 0.00 0.00 1014.2
20260901201026 90 202 0.0 4.0 0.00 0.00 0.00 1014.2
20260901200548 90 243 4.0 6.0 0.00 0.00 0.00 1014.2
20260901200033 90 213 2.0 3.0 0.00 0.00 0.00 1014.2
20260901195524 90 228 0.0 5.0 0.00 0.00 0.00 1014.2
20260901195043 90 226 0.0 4.0 0.00 0.00 0.00 1014.2
20260901194523 90 182 0.0 2.0 0.00 0.00 0.00 1014.2
20260901194022 90 206 3.0 0.0 0.00 0.00 0.00 1014.2
20260901193523 90 211 3.0 5.0 0.00 0.00 0.00 1014.2
20260901193027 90 187 3.0 3.0 0.00 0.00 0.00 1014.2
20260901192533 91 205 0.0 0.0 0.00 0.00 0.00 1014.2
20260901192043 91 213 0.0 0.0 0.00 0.00 0.00 1014.2
20260901191552 91 221 0.0 0.0 0.00 0.00 0.00 1014.2
20260901191023 91 248 0.0 0.0 0.00 0.00 0.00 1014.2
20260901190522 91 214 0.0 0.0 0.00 0.00 0.00 1014.2
20260901190044 91 0 0.0 0.0 0.00 0.00 0.00 1014.2
20260901185527 90 182 0.0 0.0 0.00 0.00 0.00 1014.2
20260901185030 90 243 0.0 3.0 0.00 0.00 0.00 1015.2
20260901184523 90 211 3.0 2.0 0.00 0.00 0.00 1015.2
20260901184023 90 207 3.0 0.0 0.00 0.00 0.00 1015.2
20260901183522 90 200 0.0 3.0 0.00 0.00 0.00 1015.2
20260901183046 90 189 0.0 0.0 0.00 0.00 0.00 1015.2
20260901182543 90 179 5.0 8.0 0.00 0.00 0.00 1015.2
20260901182023 90 199 0.0 0.0 0.00 0.00 0.00 1015.2
20260901181522 90 245 3.0 0.0 0.00 0.00 0.00 1015.2
20260901181024 90 235 0.0 3.0 0.00 0.00 0.00 1015.2
20260901180523 89 245 0.0 2.0 0.00 0.00 0.00 1015.2
20260901180023 89 216 0.0 5.0 0.00 0.00 0.00 1015.2
20260901175523 89 235 0.0 0.0 0.00 0.00 0.00 1015.2
20260901175023 89 221 0.0 0.0 0.00 0.00 0.00 1015.2
20260901174523 89 245 2.0 3.0 0.00 0.00 0.00 1015.2
20260901174024 88 198 0.0 0.0 0.00 0.00 0.00 1015.2
20260901173523 87 238 0.0 4.0 0.00 0.00 0.00 1015.2
20260901173044 87 209 0.0 0.0 0.00 0.00 0.00 1015.2
20260901172523 87 217 0.0 3.0 0.00 0.00 0.00 1015.2
20260901172024 87 208 2.0 2.0 0.00 0.00 0.00 1015.2
20260901171522 86 194 0.0 0.0 0.00 0.00 0.00 1015.2
20260901171022 86 314 2.0 0.0 0.00 0.00 0.00 1015.2
20260901170522 85 248 0.0 4.0 0.00 0.00 0.00 1015.2
20260901170023 85 223 0.0 0.0 0.00 0.00 0.00 1015.2
20260901165529 84 145 0.0 0.0 0.00 0.00 0.00 1015.2
20260901165044 84 185 0.0 0.0 0.00 0.00 0.00 1015.2
20260901164523 84 232 0.0 0.0 0.00 0.00 0.00 1015.2
20260901164022 83 233 0.0 0.0 0.00 0.00 0.00 1015.2
20260901163523 83 199 0.0 0.0 0.00 0.00 0.00 1016.2
20260901163024 83 192 0.0 0.0 0.00 0.00 0.00 1016.2
20260901162525 84 204 0.0 0.0 0.00 0.00 0.00 1016.2
20260901162031 84 333 0.0 4.0 0.00 0.00 0.00 1015.2
20260901161523 83 222 2.0 3.0 0.00 0.00 0.00 1015.2
20260901161022 83 353 0.0 0.0 0.00 0.00 0.00 1015.2
20260901160532 83 187 0.0 0.0 0.00 0.00 0.00 1015.2
20260901160027 83 218 0.0 0.0 0.00 0.00 0.00 1015.2
20260901155522 82 221 0.0 0.0 0.00 0.00 0.00 1015.2
20260901155025 81 182 0.0 0.0 0.00 0.00 0.00 1015.2
20260901154523 81 224 0.0 0.0 0.00 0.00 0.00 1015.2
20260901154023 81 224 0.0 0.0 0.00 0.00 0.00 1015.2
20260901153529 81 224 0.0 0.0 0.00 0.00 0.00 1015.2
20260901153024 81 224 0.0 0.0 0.00 0.00 0.00 1015.2
20260901152523 81 214 0.0 0.0 0.00 0.00 0.00 1015.2
20260901152033 81 238 0.0 0.0 0.00 0.00 0.00 1015.2
20260901151525 80 225 0.0 0.0 0.00 0.00 0.00 1015.2
20260901151026 80 183 0.0 0.0 0.00 0.00 0.00 1015.2
20260901150522 81 183 0.0 0.0 0.00 0.00 0.00 1015.2
20260901150022 81 183 0.0 0.0 0.00 0.00 0.00 1015.2
20260901145522 81 196 0.0 0.0 0.00 0.00 0.00 1015.2
20260901145022 81 196 0.0 0.0 0.00 0.00 0.00 1015.2
20260901144523 81 196 0.0 0.0 0.00 0.00 0.00 1015.2
20260901144024 81 196 0.0 0.0 0.00 0.00 0.00 1015.2
20260901143523 82 196 0.0 0.0 0.00 0.00 0.00 1015.2
20260901143023 81 201 0.0 0.0 0.00 0.00 0.00 1015.2
20260901142522 81 170 0.0 0.0 0.00 0.00 0.00 1015.2
20260901142022 81 177 0.0 0.0 0.00 0.00 0.00 1015.2
20260901141522 82 240 0.0 0.0 0.00 0.00 0.00 1015.2
20260901141022 82 156 0.0 0.0 0.00 0.00 0.00 1015.2
20260901140523 82 230 0.0 0.0 0.00 0.00 0.00 1015.2
20260901140023 81 194 0.0 0.0 0.00 0.00 0.00 1015.2
20260901135523 80 195 0.0 3.0 0.00 0.00 0.00 1015.2
20260901135022 80 193 0.0 0.0 0.00 0.00 0.00 1015.2
20260901134544 80 244 0.0 3.0 0.00 0.00 0.00 1015.2
20260901134023 79 188 0.0 0.0 0.00 0.00 0.00 1015.2
20260901133523 79 176 0.0 0.0 0.00 0.00 0.00 1015.2
20260901133024 79 165 0.0 0.0 0.00 0.00 0.00 1015.2
20260901132522 78 230 0.0 0.0 0.00 0.00 0.00 1015.2
20260901132044 78 250 0.0 0.0 0.00 0.00 0.00 1015.2
20260901131523 77 191 0.0 0.0 0.00 0.00 0.00 1015.2
20260901131035 77 184 0.0 2.0 0.00 0.00 0.00 1015.2
20260901130524 76 197 0.0 0.0 0.00 0.00 0.00 1015.2
20260901130023 76 229 0.0 0.0 0.00 0.00 0.00 1015.2
20260901125543 75 210 0.0 0.0 0.00 0.00 0.00 1015.2
20260901125023 74 179 0.0 0.0 0.00 0.00 0.00 1015.2
20260901124523 74 237 0.0 2.0 0.00 0.00 0.00 1015.2
20260901124022 74 191 0.0 0.0 0.00 0.00 0.00 1015.2
20260901123522 74 199 0.0 0.0 0.00 0.00 0.00 1015.2
20260901123024 74 206 0.0 0.0 0.00 0.00 0.00 1015.2
20260901122533 74 240 0.0 0.0 0.00 0.00 0.00 1015.2
20260901122022 73 187 0.0 0.0 0.00 0.00 0.00 1015.2
20260901121522 73 222 0.0 0.0 0.00 0.00 0.00 1015.2
20260901121022 73 172 0.0 0.0 0.00 0.00 0.00 1015.2
20260901120525 73 194 0.0 0.0 0.00 0.00 0.00 1015.2
20260901120044 73 194 0.0 0.0 0.00 0.00 0.00 1015.2
20260901115522 72 193 0.0 0.0 0.00 0.00 0.00 1015.2
20260901115023 72 193 0.0 0.0 0.00 0.00 0.00 1014.2
20260901114525 72 193 0.0 0.0 0.00 0.00 0.00 1014.2
20260901114031 72 193 0.0 0.0 0.00 0.00 0.00 1014.2
20260901113523 72 193 0.0 0.0 0.00 0.00 0.00 1014.2
20260901113023 72 193 0.0 0.0 0.00 0.00 0.00 1014.2
20260901112522 72 193 0.0 0.0 0.00 0.00 0.00 1014.2
20260901112023 72 193 0.0 0.0 0.00 0.00 0.00 1014.2
20260901111522 72 193 0.0 0.0 0.00 0.00 0.00 1014.2
20260901111022 72 193 0.0 0.0 0.00 0.00 0.00 1014.2
20260901110522 72 193 0.0 0.0 0.00 0.00 0.00 1014.2
20260901110023 72 193 0.0 0.0 0.00 0.00 0.00 1014.2
20260901105523 72 191 0.0 0.0 0.00 0.00 0.00 1014.2
20260901105023 72 191 0.0 0.0 0.00 0.00 0.00 1014.2
20260901104522 72 191 0.0 0.0 0.00 0.00 0.00 1014.2
20260901104022 73 191 0.0 0.0 0.00 0.00 0.00 1014.2
20260901103523 73 191 0.0 0.0 0.00 0.00 0.00 1014.2
20260901103023 73 191 0.0 0.0 0.00 0.00 0.00 1014.2
20260901102522 73 191 0.0 0.0 0.00 0.00 0.00 1014.2
20260901102022 73 191 0.0 0.0 0.00 0.00 0.00 1014.2
20260901101543 73 191 0.0 0.0 0.00 0.00 0.00 1014.2
20260901101022 73 190 0.0 0.0 0.00 0.00 0.00 1014.2
20260901100522 73 203 0.0 0.0 0.00 0.00 0.00 1014.2
20260901100023 73 202 0.0 0.0 0.00 0.00 0.00 1014.2
20260901095522 73 212 0.0 0.0 0.00 0.00 0.00 1014.2
20260901095022 73 196 0.0 0.0 0.00 0.00 0.00 1014.2
20260901094526 73 195 0.0 0.0 0.00 0.00 0.00 1014.2
20260901094043 73 195 0.0 0.0 0.00 0.00 0.00 1014.2
20260901093524 73 195 0.0 0.0 0.00 0.00 0.00 1014.2
20260901093022 73 210 0.0 0.0 0.00 0.00 0.00 1014.2
20260901092522 73 206 0.0 0.0 0.00 0.00 0.00 1014.2
20260901092023 73 206 0.0 0.0 0.00 0.00 0.00 1014.2
20260901091523 73 214 0.0 0.0 0.00 0.00 0.00 1014.2
20260901091022 73 197 0.0 0.0 0.00 0.00 0.00 1014.2
20260901090522 73 205 0.0 0.0 0.00 0.00 0.00 1014.2
20260901090023 73 196 0.0 0.0 0.00 0.00 0.00 1014.2
20260901085521 73 202 0.0 0.0 0.00 0.00 0.00 1014.2
20260901085022 73 202 0.0 0.0 0.00 0.00 0.00 1014.2
20260901084522 73 226 0.0 0.0 0.00 0.00 0.00 1014.2
20260901084022 73 181 0.0 0.0 0.00 0.00 0.00 1014.2
20260901083544 72 181 0.0 0.0 0.00 0.00 0.00 1014.2
20260901083023 72 181 0.0 0.0 0.00 0.00 0.00 1014.2
20260901082523 72 180 0.0 0.0 0.00 0.00 0.00 1014.2
20260901082022 72 200 0.0 0.0 0.00 0.00 0.00 1014.2
20260901081524 72 200 0.0 0.0 0.00 0.00 0.00 1014.2
20260901081022 72 200 0.0 0.0 0.00 0.00 0.00 1014.2
20260901080522 72 200 0.0 0.0 0.00 0.00 0.00 1014.2
20260901080024 72 200 0.0 0.0 0.00 0.00 0.00 1014.2
20260901075523 72 200 0.0 0.0 0.00 0.00 0.00 1014.2
20260901075023 72 200 0.0 0.0 0.00 0.00 0.00 1014.2
20260901074522 72 200 0.0 0.0 0.00 0.00 0.00 1014.2
20260901074022 72 200 0.0 0.0 0.00 0.00 0.00 1014.2
20260901073522 72 200 0.0 0.0 0.00 0.00 0.00 1014.2
20260901073023 73 200 0.0 0.0 0.00 0.00 0.00 1014.2